Wind_Speed
11 9 8 7 6 6 6 6 8 9 9 9 8 8 8 8 8 7 6 5 5 4 4 3 2 2 2 2 3 3 4 4 4 4 5 5 6 6 6 6 6 6 6 7 6 6 6 6 6
12 11 9 8 7 7 7 7 8 8 8 9 9 8 8 8 8 7 6 6 5 5 4 3 1 1 2 2 3 3 4 4 5 5 5 6 6 6 6 6 7 7 7 7 7 7 7 7 7
13 12 11 10 9 9 8 8 8 8 9 8 8 8 8 8 7 7 6 6 5 4 3 2 2 2 2 3 3 3 4 5 5 6 6 6 6 6 7 7 7 8 8 8 8 8 8 8 7
15 13 12 11 10 10 9 8 8 8 8 8 8 7 7 8 7 6 5 5 5 4 3 3 2 2 2 3 3 3 4 5 5 6 6 7 7 8 8 8 8 9 9 9 9 9 9 8 8
16 15 13 12 11 11 10 9 9 8 8 8 8 8 8 8 7 6 5 5 5 4 3 2 1 1 2 3 3 4 4 4 5 6 6 7 8 8 9 9 9 10 10 10 10 10 9 9 9
17 16 15 14 13 12 11 10 9 9 8 7 7 9 9 8 7 6 5 5 4 3 2 1 0 1 2 3 3 3 4 5 6 6 7 8 9 10 10 10 10 11 11 11 11 10 10 9 9
18 18 16 15 14 13 12 10 10 10 8 7 7 8 8 8 7 6 5 4 3 2 2 1 1 2 2 3 3 4 5 6 6 7 8 9 9 10 10 10 11 11 11 11 11 11 10 9 9
19 18 17 16 15 14 13 11 11 10 9 8 7 7 7 7 6 5 4 3 2 2 1 0 2 2 2 3 3 5 5 6 7 8 9 9 10 10 11 11 11 11 12 12 11 10 9 9 9
19 19 18 17 17 15 13 12 11 10 9 8 7 7 6 7 6 5 4 3 2 2 1 1 1 2 3 4 4 5 6 6 7 8 9 10 11 11 11 11 12 12 12 11 11 10 9 9 9
20 19 18 17 17 16 14 13 11 10 9 9 8 7 7 7 7 6 4 3 2 2 1 0 1 2 2 3 4 5 6 7 7 8 9 10 11 11 12 12 12 12 11 11 10 10 9 9 9
20 19 18 17 16 16 14 13 12 10 10 10 9 8 8 8 7 6 5 3 3 3 2 1 1 2 3 4 4 5 6 7 7 8 9 10 11 12 12 12 12 11 11 11 11 10 10 10 9
19 19 17 16 16 15 14 14 12 11 11 10 9 8 8 8 7 6 5 4 4 3 2 1 1 2 3 4 4 5 6 7 7 8 9 10 11 12 12 12 12 12 12 12 12 11 10 10 10
18 18 17 16 15 15 14 13 12 11 11 10 10 9 9 8 6 5 4 4 4 3 2 1 1 2 3 3 4 5 5 6 8 8 9 10 11 12 12 13 13 13 13 13 12 11 11 10 10
18 17 17 16 16 15 15 13 13 11 11 10 10 9 8 7 7 5 4 4 4 3 2 1 1 2 3 3 4 5 5 6 7 8 9 10 11 12 12 13 13 14 14 13 13 12 11 11 10
18 17 17 17 16 16 15 13 13 12 11 11 10 10 9 8 7 6 5 5 4 3 2 2 2 2 3 3 4 5 6 7 8 9 9 10 11 11 12 13 13 14 14 14 13 13 12 11 11
19 18 17 16 16 16 15 14 13 13 12 11 10 10 9 8 8 7 6 5 4 4 3 2 2 2 2 3 4 5 6 7 8 9 10 10 11 11 12 13 14 14 14 14 13 13 12 11 11
19 19 18 17 16 15 15 14 13 13 12 11 11 11 9 9 8 7 6 5 4 4 3 2 2 2 2 3 4 5 6 7 8 8 9 10 10 11 12 13 14 14 14 14 14 13 13 12 12
18 17 18 16 15 14 14 14 13 12 12 11 10 10 10 9 8 8 7 6 4 4 3 3 2 2 2 3 4 5 5 6 7 8 9 10 11 12 13 13 14 14 14 14 14 14 13 12 12
17 16 15 14 13 12 12 12 13 12 12 11 10 9 9 9 9 8 8 6 5 5 4 3 3 3 3 3 3 4 5 6 7 8 9 10 11 12 13 14 14 14 14 14 14 14 13 12 12
16 15 13 12 11 10 9 9 11 12 11 11 10 9 9 9 9 9 8 7 6 5 4 4 4 3 3 3 3 4 5 5 6 7 8 9 10 12 13 14 14 14 14 14 14 14 13 13 13
17 15 13 11 10 9 8 8 9 11 11 10 10 9 9 9 9 9 9 8 7 6 5 4 4 4 3 3 3 3 4 5 6 8 9 10 11 12 14 14 15 14 14 14 14 14 13 13 13
15 14 13 11 10 9 9 9 9 9 10 10 10 10 9 9 9 9 9 9 8 7 6 5 4 4 3 3 3 4 5 6 7 9 9 11 12 13 14 15 15 15 15 14 14 14 14 14 14
14 14 13 12 10 9 9 8 8 9 9 9 9 9 9 10 10 10 9 9 9 8 7 6 6 5 4 4 4 5 6 7 8 9 10 11 13 13 14 15 15 15 15 15 15 15 15 15 15
13 12 12 10 8 8 9 8 8 9 8 9 9 9 10 10 10 10 10 10 9 9 8 8 7 6 5 5 5 6 6 7 8 9 10 12 13 13 14 15 15 15 16 16 16 16 16 16 16
12 11 9 9 8 9 9 9 8 9 9 8 9 9 9 9 10 11 10 10 10 10 9 8 8 7 6 6 7 7 7 8 9 10 11 13 13 13 14 15 15 16 16 17 17 17 17 17 17
12 11 10 9 9 9 9 8 8 9 9 9 9 9 10 10 10 10 10 10 10 10 9 9 8 7 7 7 8 8 8 9 10 11 12 13 14 14 15 15 16 17 18 18 19 19 18 18 18
12 11 10 9 8 8 8 9 8 8 9 9 9 10 10 10 10 10 10 11 11 10 10 9 9 8 8 9 9 10 10 11 12 13 14 14 15 15 16 17 17 18 19 20 20 20 20 20 19
11 11 10 9 8 8 8 9 10 9 9 9 10 10 10 10 10 10 10 10 11 11 10 10 10 10 10 10 11 11 12 13 13 14 15 15 16 16 17 18 19 19 20 21 21 21 21 20 20
11 10 9 9 9 8 7 8 10 10 10 10 10 10 10 10 10 10 11 11 11 11 11 11 11 11 11 11 12 13 13 14 15 15 16 17 17 17 18 18 19 20 21 22 22 22 22 21 21
11 11 10 10 10 10 9 9 10 11 11 11 11 10 10 10 10 11 11 12 12 12 12 12 12 12 13 13 13 14 15 15 16 17 17 18 18 19 19 20 21 22 22 23 23 23 23 22 22
Wind_Direction
211 209 204 192 183 173 164 158 159 163 162 159 154 149 150 153 158 161 160 150 151 151 133 121 105 68 53 37 17 10 7 6 0 355 352 347 341 337 335 335 334 332 329 321 311 305 297 286 279
211 208 204 194 185 176 168 162 160 164 164 159 157 153 151 150 151 152 153 147 150 149 133 117 90 60 42 18 4 360 357 357 358 358 356 351 342 338 335 332 331 330 327 322 316 311 303 294 286
211 207 202 195 189 182 171 165 162 160 161 162 162 159 153 150 148 145 146 150 153 146 130 110 90 70 26 360 353 348 351 355 0 2 2 357 348 341 338 333 333 329 324 320 315 310 302 294 288
210 206 204 197 191 186 180 173 165 158 161 165 164 164 159 157 154 149 147 150 152 144 127 113 100 52 13 6 1 0 1 2 2 2 0 356 349 339 337 335 334 330 324 319 315 310 303 294 288
209 206 203 199 194 190 184 180 173 165 162 166 170 170 167 163 163 159 154 152 149 140 127 120 101 20 11 9 8 4 0 359 2 360 355 350 344 340 335 334 332 331 326 321 317 311 302 295 291
207 204 203 200 196 192 186 184 181 178 174 170 169 166 167 169 167 166 163 155 149 139 130 124 54 1 356 3 4 355 350 351 354 351 347 344 342 338 335 332 330 329 326 323 318 312 303 295 291
205 203 204 202 199 197 191 186 183 181 179 179 177 172 167 174 171 171 171 165 155 147 144 137 356 347 346 344 338 341 346 346 347 347 345 341 338 337 335 333 330 329 326 325 321 315 305 295 289
204 203 204 203 200 198 195 191 187 186 183 183 182 180 174 178 177 178 180 169 147 138 146 344 341 342 336 333 336 347 345 343 345 346 345 342 339 338 337 336 334 332 330 328 324 317 309 301 291
204 203 203 202 200 199 196 190 189 190 189 186 185 187 184 186 190 185 180 171 155 152 173 342 346 344 345 342 343 346 347 348 349 349 347 346 345 344 342 341 338 336 334 331 326 320 314 306 298
201 201 200 199 199 197 197 196 191 194 194 192 194 192 188 187 188 186 185 180 173 186 207 270 340 353 353 354 353 350 350 351 350 350 349 348 348 346 344 343 341 340 338 335 329 323 318 313 303
198 198 198 198 199 197 199 199 196 198 199 196 196 194 191 187 187 187 183 186 197 204 212 236 326 351 354 355 354 351 350 351 349 347 348 349 349 347 346 346 345 343 340 337 332 324 319 317 309
199 197 195 197 200 200 200 199 198 199 197 195 197 199 193 182 186 190 194 197 204 210 215 240 310 337 348 355 354 350 351 351 348 347 350 351 351 350 351 352 350 347 343 339 336 331 322 317 312
193 193 195 197 195 195 194 193 193 197 196 199 200 202 195 185 191 194 200 206 208 215 224 267 321 331 345 353 355 355 354 352 349 351 352 353 354 356 356 355 354 351 349 346 342 338 332 325 319
186 188 192 196 192 189 190 192 195 195 195 198 197 197 193 195 198 203 208 207 211 216 222 260 316 332 341 348 356 356 353 350 349 351 353 354 355 357 358 357 356 355 354 352 348 344 338 333 325
185 185 191 195 193 191 190 191 193 193 194 196 198 200 202 202 203 206 204 199 206 210 217 249 286 307 331 349 350 351 351 351 352 354 355 356 356 357 357 357 357 356 355 353 351 348 345 342 338
183 185 190 191 192 193 189 191 194 194 195 199 202 202 203 204 203 203 203 202 206 211 222 246 270 298 324 344 344 344 350 355 356 356 356 356 357 357 356 355 355 355 356 356 354 353 351 348 345
187 186 189 192 191 190 191 192 194 195 198 203 205 202 201 200 201 204 205 207 208 216 227 243 266 290 316 335 338 342 350 354 355 357 358 358 358 357 356 354 354 354 355 355 355 353 352 350 347
186 187 185 189 191 196 194 191 189 194 198 199 198 199 201 202 204 207 207 208 215 225 231 237 255 281 310 326 332 341 349 353 356 0 0 358 358 356 355 353 352 353 353 354 353 353 352 352 351
182 183 185 185 188 191 192 191 187 192 194 196 198 201 201 203 207 210 210 214 223 231 230 231 248 272 296 311 323 337 346 353 356 359 359 357 357 356 356 354 353 352 353 354 354 355 354 353 352
178 179 180 180 179 184 189 185 184 190 194 198 200 205 207 209 210 213 218 222 228 232 231 239 255 272 289 305 320 336 347 353 356 356 357 356 355 354 355 354 352 352 353 355 355 355 353 350 348
174 177 182 180 177 185 188 189 188 191 197 201 206 210 215 215 216 220 224 226 228 231 233 240 255 265 280 300 321 335 341 345 347 348 350 351 351 353 354 354 354 354 353 352 353 352 350 347 344
173 175 173 173 176 182 184 189 196 199 199 203 207 212 219 222 223 225 226 225 224 226 231 237 245 253 265 285 306 318 325 333 339 342 345 347 348 349 350 351 352 352 350 349 348 348 348 345 343
173 173 173 174 179 183 185 191 202 203 207 209 215 219 224 229 228 228 228 227 226 227 230 236 242 248 260 280 295 307 316 325 331 336 339 342 344 345 347 348 349 349 348 347 345 344 342 342 340
172 173 177 181 186 190 192 197 205 209 212 217 221 223 229 233 234 232 230 230 231 232 234 239 243 247 260 275 288 299 308 317 324 330 334 337 338 339 343 345 346 347 346 345 343 340 338 338 337
174 176 180 187 195 201 200 206 213 217 217 222 224 228 235 239 239 234 232 233 234 234 235 240 245 251 263 275 286 295 302 310 319 325 328 331 333 335 338 341 342 342 342 342 340 338 336 335 334
178 176 181 189 200 204 210 211 218 223 225 228 231 232 237 242 238 235 234 235 236 237 239 242 248 255 266 277 285 292 301 308 314 320 323 326 329 331 333 336 337 338 338 338 336 336 334 332 331
185 186 191 196 203 210 219 222 224 227 230 232 233 234 237 238 238 237 236 236 238 240 243 246 250 258 267 278 286 292 299 305 310 314 317 320 323 325 328 331 332 333 334 334 333 332 331 330 329
191 195 200 204 208 211 221 226 228 233 233 232 232 232 232 233 235 235 236 238 240 244 248 251 255 262 270 278 287 292 297 302 306 310 312 315 317 319 323 325 326 328 329 330 330 330 329 327 326
201 206 210 213 212 211 217 224 226 230 232 229 229 229 231 233 236 237 239 243 245 249 253 256 259 264 271 278 286 291 296 300 304 307 309 312 314 316 319 321 323 324 326 327 327 327 327 325 323
210 211 214 218 219 221 225 226 229 230 230 232 234 236 238 240 243 243 245 247 250 254 258 261 264 267 272 278 285 291 295 299 302 305 308 310 312 314 315 317 319 321 322 322 323 323 323 323 320
Height
5883 5884 5886 5887 5889 5889 5889 5889 5890 5891 5892 5892 5893 5894 5895 5896 5898 5900 5898 5897 5898 5898 5898 5898 5898 5898 5898 5897 5897 5896 5895 5895 5894 5893 5892 5891 5891 5890 5889 5888 5887 5886 5885 5884 5883 5883 5882 5882 5881
5881 5883 5885 5887 5888 5888 5889 5889 5890 5891 5892 5893 5893 5894 5895 5895 5896 5897 5897 5897 5898 5898 5898 5898 5898 5898 5898 5897 5897 5896 5895 5895 5894 5893 5892 5891 5890 5889 5888 5887 5886 5885 5884 5883 5882 5882 5881 5880 5880
5880 5882 5885 5886 5886 5888 5889 5889 5890 5891 5892 5893 5894 5894 5895 5896 5896 5896 5897 5897 5898 5898 5898 5898 5898 5898 5898 5897 5897 5896 5895 5895 5894 5893 5892 5891 5890 5889 5888 5887 5885 5884 5883 5882 5881 5880 5879 5879 5878
5879 5881 5884 5885 5885 5887 5888 5889 5890 5891 5892 5892 5893 5894 5895 5896 5896 5897 5897 5897 5898 5898 5898 5898 5898 5898 5898 5897 5897 5896 5895 5895 5894 5893 5892 5891 5890 5888 5887 5886 5885 5883 5882 5881 5880 5878 5878 5877 5876
5877 5880 5882 5883 5884 5886 5887 5888 5890 5891 5891 5892 5893 5894 5894 5895 5896 5897 5897 5897 5898 5898 5898 5898 5898 5898 5898 5897 5896 5896 5895 5894 5893 5892 5891 5890 5889 5888 5887 5885 5884 5882 5881 5879 5878 5877 5876 5875 5874
5875 5878 5880 5881 5883 5885 5886 5888 5889 5890 5891 5892 5893 5893 5893 5894 5895 5896 5897 5897 5898 5898 5898 5898 5898 5898 5897 5897 5896 5896 5895 5894 5893 5892 5891 5890 5888 5887 5886 5884 5882 5881 5879 5878 5876 5875 5874 5873 5872
5873 5876 5878 5880 5882 5883 5885 5887 5888 5889 5890 5892 5892 5893 5893 5894 5895 5896 5896 5897 5897 5898 5898 5898 5898 5897 5897 5897 5896 5895 5894 5894 5893 5891 5890 5889 5888 5886 5885 5883 5881 5880 5878 5876 5874 5873 5871 5870 5870
5870 5874 5876 5878 5880 5882 5884 5885 5887 5888 5890 5891 5892 5893 5893 5894 5894 5895 5896 5897 5897 5897 5898 5898 5897 5897 5897 5896 5895 5895 5894 5893 5892 5891 5890 5888 5887 5885 5883 5882 5880 5878 5876 5874 5872 5871 5869 5868 5868
5868 5872 5873 5876 5878 5880 5882 5884 5886 5887 5889 5890 5891 5892 5893 5893 5894 5895 5896 5896 5897 5897 5898 5897 5897 5897 5896 5896 5895 5894 5894 5893 5892 5890 5889 5888 5886 5884 5882 5880 5878 5876 5874 5872 5870 5869 5868 5866 5865
5865 5869 5871 5874 5876 5879 5881 5883 5885 5887 5888 5889 5890 5891 5892 5893 5894 5894 5895 5896 5896 5897 5897 5897 5897 5897 5896 5896 5895 5894 5893 5892 5891 5890 5889 5887 5885 5883 5881 5879 5877 5875 5873 5871 5869 5867 5866 5864 5863
5863 5866 5869 5872 5874 5877 5879 5882 5884 5885 5887 5888 5889 5890 5891 5892 5893 5894 5895 5895 5896 5896 5897 5897 5897 5896 5896 5895 5895 5894 5893 5892 5891 5889 5888 5886 5884 5882 5880 5878 5876 5874 5871 5869 5867 5865 5864 5862 5861
5861 5864 5867 5870 5873 5876 5878 5880 5882 5884 5886 5887 5888 5889 5890 5892 5893 5893 5894 5895 5896 5896 5897 5897 5897 5896 5896 5895 5894 5894 5893 5891 5890 5889 5887 5886 5884 5882 5879 5877 5875 5872 5870 5868 5865 5863 5862 5860 5859
5860 5863 5866 5869 5871 5874 5877 5879 5881 5883 5885 5886 5887 5889 5890 5891 5892 5893 5894 5894 5895 5896 5896 5896 5896 5896 5895 5895 5894 5893 5892 5891 5890 5888 5887 5885 5883 5881 5879 5876 5874 5871 5869 5866 5864 5862 5860 5858 5857
5858 5862 5865 5868 5870 5873 5875 5878 5880 5882 5884 5885 5887 5888 5889 5890 5891 5892 5893 5894 5895 5895 5896 5896 5896 5896 5895 5895 5894 5893 5892 5891 5890 5888 5886 5884 5882 5880 5878 5876 5873 5871 5868 5865 5863 5861 5858 5857 5855
5857 5861 5864 5867 5869 5871 5874 5877 5879 5880 5882 5884 5886 5887 5888 5889 5891 5892 5892 5893 5894 5895 5895 5896 5896 5896 5895 5894 5894 5893 5892 5890 5889 5888 5886 5884 5882 5880 5878 5875 5873 5870 5867 5864 5862 5859 5857 5855 5853
5856 5860 5863 5865 5868 5870 5875 5876 5877 5879 5881 5883 5885 5886 5887 5888 5890 5891 5892 5893 5894 5894 5895 5895 5895 5895 5895 5894 5893 5893 5891 5890 5889 5887 5885 5883 5881 5879 5877 5875 5872 5869 5867 5864 5861 5859 5856 5854 5852
5856 5859 5862 5864 5866 5869 5872 5874 5876 5878 5880 5882 5884 5885 5887 5888 5889 5890 5891 5892 5893 5894 5894 5895 5895 5895 5895 5894 5893 5892 5891 5890 5888 5887 5885 5883 5881 5879 5877 5874 5871 5869 5866 5863 5861 5858 5856 5853 5851
5855 5858 5861 5863 5865 5868 5871 5873 5875 5877 5879 5881 5883 5884 5886 5887 5888 5890 5891 5892 5892 5893 5894 5894 5894 5894 5894 5894 5893 5892 5891 5890 5888 5886 5885 5883 5881 5878 5876 5873 5871 5868 5865 5862 5860 5857 5855 5853 5850
5854 5857 5860 5863 5865 5868 5870 5872 5874 5876 5878 5880 5882 5884 5885 5886 5888 5889 5890 5891 5892 5893 5893 5894 5894 5894 5894 5893 5892 5892 5891 5889 5888 5886 5884 5882 5880 5878 5876 5873 5870 5867 5864 5862 5859 5857 5854 5852 5850
5854 5857 5860 5863 5865 5868 5870 5872 5874 5876 5878 5880 5881 5883 5884 5885 5887 5888 5889 5890 5891 5892 5893 5893 5893 5893 5893 5892 5892 5891 5890 5889 5888 5886 5884 5882 5880 5878 5875 5872 5869 5866 5864 5861 5858 5856 5853 5851 5849
5855 5858 5860 5863 5865 5868 5870 5872 5874 5875 5877 5879 5880 5882 5883 5884 5886 5887 5888 5889 5890 5891 5892 5892 5892 5892 5892 5891 5891 5890 5890 5889 5887 5886 5884 5882 5879 5877 5874 5871 5868 5866 5863 5860 5858 5855 5853 5850 5848
5855 5858 5860 5863 5866 5868 5870 5872 5874 5875 5877 5878 5879 5881 5882 5883 5885 5886 5887 5888 5889 5890 5890 5891 5891 5891 5891 5891 5890 5890 5889 5888 5886 5885 5883 5881 5878 5876 5873 5871 5868 5865 5862 5859 5857 5854 5852 5849 5847
5855 5858 5861 5863 5866 5868 5870 5872 5874 5874 5876 5877 5878 5880 5881 5882 5883 5885 5886 5887 5888 5889 5889 5890 5890 5890 5890 5890 5889 5889 5888 5887 5885 5883 5882 5880 5877 5875 5872 5870 5867 5864 5861 5858 5855 5853 5850 5847 5845
5856 5859 5861 5863 5866 5868 5869 5871 5873 5873 5875 5876 5877 5878 5879 5881 5882 5883 5884 5885 5886 5887 5888 5888 5889 5889 5889 5889 5888 5887 5886 5885 5884 5882 5880 5878 5876 5874 5871 5868 5865 5863 5860 5857 5854 5851 5848 5845 5842
5856 5860 5862 5864 5866 5868 5868 5870 5872 5872 5873 5874 5876 5877 5878 5879 5880 5881 5883 5884 5885 5885 5886 5887 5887 5887 5887 5887 5886 5885 5885 5883 5882 5880 5878 5876 5874 5872 5869 5867 5864 5861 5858 5855 5852 5849 5846 5843 5840
5856 5860 5863 5865 5866 5867 5867 5869 5871 5871 5872 5873 5874 5875 5876 5877 5878 5879 5880 5882 5883 5884 5884 5885 5885 5885 5885 5885 5884 5883 5882 5881 5880 5878 5876 5874 5872 5870 5867 5865 5862 5859 5856 5852 5849 5846 5843 5840 5836
5856 5858 5861 5863 5864 5866 5867 5868 5869 5869 5870 5871 5872 5873 5874 5875 5876 5877 5878 5879 5880 5881 5882 5882 5883 5883 5883 5882 5882 5881 5880 5879 5877 5876 5874 5872 5869 5867 5864 5862 5859 5856 5853 5850 5846 5843 5839 5836 5833
5856 5858 5860 5862 5863 5865 5866 5866 5868 5868 5868 5869 5870 5871 5872 5874 5874 5875 5876 5877 5878 5879 5879 5880 5880 5880 5880 5879 5879 5878 5877 5876 5874 5873 5871 5869 5866 5864 5861 5859 5856 5853 5849 5846 5842 5839 5835 5832 5829
5856 5857 5859 5860 5862 5864 5865 5868 5866 5866 5867 5868 5869 5869 5870 5871 5872 5873 5874 5875 5876 5876 5876 5877 5877 5877 5877 5876 5876 5875 5874 5872 5871 5869 5867 5865 5863 5860 5858 5855 5852 5849 5845 5842 5838 5834 5831 5827 5824
5854 5855 5857 5859 5860 5861 5863 5867 5864 5864 5864 5865 5866 5867 5868 5869 5870 5871 5871 5872 5873 5873 5873 5873 5873 5873 5873 5872 5872 5871 5870 5868 5867 5865 5863 5861 5859 5856 5854 5851 5848 5845 5841 5837 5833 5829 5826 5822 5818